Weather History for KNFL - May, 2013

Change the Weather History Date:

Friday, May 31, 2013

  Actual Average Record
Temperature  
Mean Temperature 64 °F -  
Max Temperature 82 °F 76 °F 94 °F (1986)
Min Temperature 45 °F 44 °F 29 °F (1978)
Degree Days  
Heating Degree Days 2    
Growing Degree Days 14 (Base 50)    
Moisture  
Dew Point 20 °F    
Average Humidity 21    
Maximum Humidity 40    
Minimum Humidity 7    
Precipitation  
Precipitation 0.00 in - - ()
Sea Level Pressure  
Sea Level Pressure 30.04 in    
Wind  
Wind Speed 5 mph (North)    
Max Wind Speed 10 mph    
Max Gust Speed -    
Visibility 10 miles    
Events      
Averages and records for this station are not official NWS values.
T = Trace of Precipitation, MM = Missing Value Source: NWS Daily Summary

Daily Weather History Graph

Daily Weather History Graph

Search for Another Location

Airport or City:

Trip Planner

Search our weather history database for the weather conditions in past years. The results will help you decide how hot, cold, wet, or windy it might be!

Date:

Astronomy

May. 31, 2013 Rise Set
Actual Time 5:30 AM PDT 8:15 PM PDT
Civil Twilight 4:58 AM PDT 8:47 PM PDT
Nautical Twilight 4:18 AM PDT 9:26 PM PDT
Astronomical Twilight 3:33 AM PDT 10:12 PM PDT
Moon 12:54 AM PDT (5/31) 12:48 PM PDT (5/31)
Length of Visible Light 15h 48m
Length of Day
14h 45m
Waning Gibbous, 50% of the Moon is Illuminated
May 31
Waning Gibbous
May 31
Last Quarter
Jun 8
New
Jun 16
First Quarter
Jun 23
Full

Hourly Weather History & Observations

Time (PDT) Temp. Windchill Dew Point Humidity Pressure Visibility Wind Dir Wind Speed Gust Speed Precip Events Conditions
12:56 AM 55.0 °F - 21.0 °F 27% 29.99 in 10.0 mi North 5.8 mph - N/A   Clear
1:56 AM 54.0 °F - 17.1 °F 23% 29.99 in 10.0 mi NNW 10.4 mph - N/A   Clear
2:56 AM 52.0 °F - 19.9 °F 28% 30.00 in 10.0 mi NW 3.5 mph - N/A   Clear
3:56 AM 48.0 °F - 21.0 °F 34% 30.01 in 10.0 mi NW 6.9 mph - N/A   Clear
4:56 AM 46.0 °F 43.9 °F 21.9 °F 39% 30.03 in 10.0 mi North 4.6 mph - N/A   Clear
5:56 AM 45.0 °F - 21.9 °F 40% 30.06 in 10.0 mi Calm Calm - N/A   Clear
6:17 AM 48.2 °F - 23.0 °F 37% 30.16 in 10.0 mi Calm Calm - N/A   Partly Cloudy
6:56 AM 52.0 °F - 24.1 °F 34% 30.07 in 10.0 mi Calm Calm - N/A   Partly Cloudy
7:56 AM 57.9 °F - 24.1 °F 27% 30.09 in 10.0 mi North 4.6 mph - N/A   Clear
8:56 AM 62.1 °F - 25.0 °F 24% 30.10 in 10.0 mi NNE 6.9 mph - N/A   Partly Cloudy
9:56 AM 66.9 °F - 24.1 °F 20% 30.10 in 10.0 mi North 6.9 mph - N/A   Clear
10:56 AM 70.0 °F - 23.0 °F 17% 30.09 in 10.0 mi North 6.9 mph - N/A   Clear
11:56 AM 73.0 °F - 23.0 °F 15% 30.09 in 10.0 mi NNW 8.1 mph - N/A   Clear
12:56 PM 75.0 °F - 21.9 °F 14% 30.07 in 10.0 mi Variable 3.5 mph - N/A   Clear
1:56 PM 77.0 °F - 18.0 °F 11% 30.05 in 10.0 mi Variable 5.8 mph - N/A   Clear
2:56 PM 78.1 °F - 17.1 °F 10% 30.04 in 10.0 mi Calm Calm - N/A   Clear
3:56 PM 80.1 °F - 12.9 °F 8% 30.02 in 10.0 mi Calm Calm - N/A   Clear
4:56 PM 82.0 °F - 16.0 °F 8% 30.01 in 10.0 mi NNE 9.2 mph - N/A   Clear
5:56 PM 81.0 °F - 12.0 °F 7% 30.00 in 10.0 mi NE 3.5 mph - N/A   Clear
6:56 PM 81.0 °F - 12.0 °F 7% 30.01 in 10.0 mi North 8.1 mph - N/A   Clear
7:56 PM 77.0 °F - 17.1 °F 10% 30.01 in 10.0 mi North 5.8 mph - N/A   Clear
8:56 PM 68.0 °F - 19.0 °F 15% 30.01 in 10.0 mi North 9.2 mph - N/A   Clear
9:56 PM 63.0 °F - 18.0 °F 18% 30.03 in 10.0 mi East 5.8 mph - N/A   Clear
10:56 PM 60.1 °F - 21.0 °F 22% 30.03 in 10.0 mi North 5.8 mph - N/A   Clear
11:56 PM 55.9 °F - 17.1 °F 22% 30.03 in 10.0 mi ENE 4.6 mph - N/A   Clear